Regional Weather Roundup
Issued by NWS

Home | Current Version | Previous Version | Graphics & Text | Print | Product List | Glossary Off
Versions: 1 2 3 4 5 6 7 8 9 10 11 12 13 14 15 16 17 18 19 20 21 22 23 24 25 26 27 28 29 30 31 32 33 34 35 36 37 38 39 40 41 42 43 44 45 46 47 48 49 50

000
ASUS43 KDTX 020401
RWRMI
MICHIGAN HOURLY REGIONAL WEATHER ROUNDUP
NATIONAL WEATHER SERVICE DETROIT/PONTIAC MI
1200 AM EDT TUE JUN 02 2015

NOTE: "FAIR" INDICATES FEW OR NO CLOUDS BELOW 12,000 FEET WITH NO
SIGNIFICANT WEATHER AND/OR OBSTRUCTION TO VISIBILITY.

MIZ047>049-052>055-059>063-066>070-074>076-081>083-020500-
SOUTHEAST LOWER MICHIGAN

CITY           SKY/WX    TMP DP  RH WIND       PRES   REMARKS
ADRIAN         MOCLDY    49  45  86 E3        30.21F
ALMA           CLEAR     41  38  90 CALM      30.25R
ANN ARBOR      MOCLDY    44  42  93 CALM      30.21S
BAD AXE        CLEAR     40  35  83 CALM      30.23S
CARO           PTCLDY    40  38  93 CALM      30.23S
DETROIT CITY   MOCLDY    53  38  56 N5        30.21S
DETROIT        MOCLDY    53  41  63 CALM      30.22S
FLINT          PTCLDY    50  37  61 NE3       30.23S
GROSSE ILE     MOCLDY    54  43  66 CALM      30.20F
HILLSDALE      CLEAR     49  45  88 CALM      30.21S
HOWELL         PTCLDY    48  42  80 N3        30.22S

CITY           SKY/WX    TMP DP  RH WIND       PRES   REMARKS
JACKSON        CLEAR     50  41  71 CALM      30.21F
LAMBERTVILLE   MOCLDY    52  45  76 CALM      30.20F
LANSING        CLEAR     49  39  68 NE3       30.23S
LAPEER         FAIR      41  39  94 CALM      30.23S
MASON          FAIR      47  40  78 CALM      30.22S
MONROE         MOCLDY    52  43  71 NE3       30.19F
MT. CLEMENS    MOCLDY    50  40  69 NW2       30.19S
PONTIAC        MOCLDY    49  40  71 N3        30.21F
PORT HOPE        N/A     49  40  71 CALM      30.22S
PORT HURON     PTCLDY    45  39  81 CALM      30.22S
TRI CITIES     CLEAR     50  39  66 E6        30.24F
MIDLAND        FAIR      40  38  93 CALM      30.23F
TROY           MOCLDY    52  39  61 CALM      30.23F
SAGINAW HB     CLEAR     46  41  81 NE3       30.24S
$$
MIZ043>046-050>051-056>058-064>065-071>073-077>080-020500-
SOUTHWEST LOWER MICHIGAN

CITY           SKY/WX    TMP DP  RH WIND       PRES   REMARKS
BATTLE CREEK   CLEAR     51  42  71 NE3       30.22S
BENTON HARBOR  CLEAR     44  42  93 CALM      30.20S
BIG RAPIDS     CLEAR     50  34  54 CALM      30.24S
COLDWATER      CLEAR     51  42  71 E3        30.21S
FREMONT        FAIR      53  35  50 CALM      30.22S
HOLLAND        CLEAR     50  42  74 E3        30.22S
GRAND RAPIDS   PTCLDY    48  37  65 E3        30.23R
IONIA          FAIR      46  35  66 NE7       30.22S
KALAMAZOO      CLEAR     54  44  69 NE3       30.21F
LUDINGTON      CLEAR     43  40  88 CALM      30.21F
MARSHALL       CLEAR     51  42  71 CALM      30.21S
MOUNT PLEASANT CLEAR     42  37  83 CALM      30.24S
MUSKEGON       CLEAR     52  40  63 CALM      30.22S
SOUTH HAVEN    CLEAR     48  44  85 E3        30.20F
$$
MIZ016>042-020500-
NORTHERN LOWER MICHIGAN

CITY           SKY/WX    TMP DP  RH WIND       PRES   REMARKS
ALPENA         CLEAR     43  39  86 CALM      30.25F
BEAVER ISLAND  CLEAR     39  37  93 CALM      30.24F
BELLAIRE       CLEAR     46  37  73 CALM      30.25R
CADILLAC       CLEAR     49  37  63 SE6       30.23F
CHARLEVOIX     CLEAR     46  37  70 SE5       30.26F
FRANKFORT      CLEAR     46  36  69 CALM      30.21F
GAYLORD        CLEAR     47  32  56 SE3       30.24F
GRAYLING       CLEAR     40  33  77 CALM      30.26S
HARBOR SPRINGS CLEAR     41  33  73 N3        30.24F
HOUGHTON LAKE  CLEAR     44  39  82 CALM      30.25S
MANISTEE       CLEAR     48  39  71 E5        30.22F
OSCODA         CLEAR     42  36  79 CALM      30.23F
PELLSTON       CLEAR     38  34  85 CALM      30.25S
ROGERS CITY    CLEAR     42  39  89 CALM      30.27R
TRAVERSE CITY  CLEAR     46  40  79 CALM      30.23S
$$
MIZ007>008-015-020500-
EASTERN UPPER MICHIGAN

CITY           SKY/WX    TMP DP  RH WIND       PRES   REMARKS
KINROSS        CLEAR     48  34  57 CALM      30.25S
MACKINAC ISLAN CLEAR     46  35  64 N3        30.25S
NEWBERRY       CLEAR     43  39  85 CALM      30.24S
S. S. MARIE    CLEAR     46  35  65 W5        30.24F
$$
MIZ004>006-011>014-085-020500-
CENTRAL UPPER MICHIGAN

CITY           SKY/WX    TMP DP  RH WIND       PRES   REMARKS
MANISTIQUE     CLEAR     39  36  87 CALM      30.23F
ESCANABA       CLEAR     43  37  81 CALM      30.22F
MENOMINEE      CLEAR     43  37  81 CALM      30.22F
SAWYER-GWINN   CLEAR     50  36  59 S3        30.23S
$$
MIZ001>003-009>011-084-020500-
WESTERN UPPER MICHIGAN

CITY           SKY/WX    TMP DP  RH WIND       PRES   REMARKS
IRON MOUNTAIN  CLEAR     48  34  58 CALM      30.21F
HOUGHTON       CLEAR     50  27  40 E9        30.19F
COPPER HARBOR    N/A     46  32  58 SW9G17    30.20S
IRONWOOD       PTCLDY    55  36  47 S8        30.14S
$$

ABBREVIATIONS USED IN REMARKS
   TC - TEMPERATURE IN CELSIUS
  WCI - WIND CHILL INDEX
   HX - HEAT INDEX
  VSB - VISIBILITY




USA.gov is the U.S. government's official web portal to all federal, state and local government web resources and services.